Regional Weather Roundup
Issued by NWS Northern Indiana

Home | Current Version | Previous Version | Graphics & Text | Print | Product List | Glossary On
Versions: 1 2 3 4 5 6 7 8 9 10 11 12 13 14 15 16 17 18 19 20 21 22 23 24 25 26 27 28 29 30 31 32 33 34 35 36 37 38 39 40 41 42 43 44 45 46 47 48 49 50
000
ASUS43 KIWX 030110
RWRIWX

KIWX WEATHER ROUNDUP
NATIONAL WEATHER SERVICE NORTHERN INDIANA
900 PM EDT TUE JUN 02 2015

NOTE: "FAIR" INDICATES FEW OR NO CLOUDS BELOW 12,000 FEET WITH NO
SIGNIFICANT WEATHER AND/OR OBSTRUCTIONS TO VISIBILITY.

* THESE STATIONS ARE NOT UNDER NWS QUALITY CONTROL. THEY ALSO MAY NOT
  REPORT WEATHER SUCH AS PRECIPITATION OR FOG.

INZ001>027-030200-
NORTHERN INDIANA

CITY           SKY/WX    TMP DP  RH WIND       PRES   REMARKS
GARY*          MOCLDY    57  48  72 NE7       30.10S
VALPARAISO     CLEAR     62  49  62 N7        30.09S
MICHIGAN CITY* CLEAR     55  45  67 NE6       30.10S
LAPORTE*       CLEAR     68  51  55 E6        30.10S
KNOX*          CLEAR     64  50  59 SE7       30.09R
SOUTH BEND     CLEAR     68  48  48 E8        30.10S
ELKHART*       CLEAR     66  48  52 SE5       30.10S
GOSHEN         CLEAR     65  51  60 E5        30.10S
MONTICELLO*    CLEAR     64  53  69 CALM      30.09S
LOGANSPORT*    CLEAR     63  50  63 CALM      30.11R
ROCHESTER*     CLEAR     66  52  59 SE3       30.11R
WARSAW*        CLEAR     63  52  67 SE3       30.10S
ANGOLA*        CLEAR     63  46  55 E8        30.13R
FORT WAYNE     PTCLDY    61  51  70 E9        30.12R
HUNTINGTON*    PTCLDY    62  52  70 E5        30.11R
PERU/GRISSOM   CLEAR     64  54  70 E5        30.09S
MARION*        MOCLDY    63  52  67 E3        30.11S

$$
INZ028>050-030200-
CENTRAL INDIANA

CITY           SKY/WX    TMP DP  RH WIND       PRES   REMARKS
LAFAYETTE      CLEAR     60  53  77 E9        30.09R
KOKOMO*        CLEAR     63  54  72 SE5       30.10S
MUNCIE*        CLOUDY    63  54  72 E3        30.10S
INDIANAPOLIS   PTCLDY    61  50  67 E9        30.09R

$$
MIZ043>046-050>051-056>058-064>065-071>073-077>080-030200-
SOUTHWEST LOWER MICHIGAN

CITY           SKY/WX    TMP DP  RH WIND       PRES   REMARKS
BATTLE CREEK   CLEAR     67  49  52 SE5       30.12R
BENTON HARBOR  PTCLDY    56  46  69 CALM      30.10S
COLDWATER*     CLEAR     61  46  57 SE8       30.13R
HILLSDALE*     CLEAR     60  42  51 SE6       30.14S
HOLLAND        PTCLDY    60  44  55 NW3       30.11S
GRAND RAPIDS   PTCLDY    67  49  52 E5        30.11S
KALAMAZOO      CLEAR     66  50  56 CALM      30.11R
STURGIS*       CLEAR     64  48  55 E8        30.11S
THREE RIVERS*  FAIR      66  48  51 SE6       30.11S

$$
OHZ001>008-015>018-024>025-030200-
NORTHWEST OHIO

CITY           SKY/WX    TMP DP  RH WIND       PRES   REMARKS
WAUSEON*       FAIR      61  46  59 E6        30.14R
DEFIANCE       CLEAR     62  45  53 E8        30.13R
FINDLAY        CLEAR     61  46  57 NE12      30.11R
TOLEDO EXPRESS CLEAR     59  40  49 NE6       30.13S
TOLEDO METCALF CLEAR     60  46  59 NE7       30.14S
LIMA           PTCLDY    62  52  69 NE7       30.11R

$$
AND FOR LAKE MICHIGAN COASTAL AND OPEN LAKE BUOY OBSERVATIONS

STATION/POSITION TEMP    WIND        PRES    VSBY  WAVE
                 AIR SEA DIR/SP/G                  HT/PER
                 (F)     (DEG/KT/KT) (MB)    (MI)  (FT/S)
CALUMET HARBOR    55      50/  7/  9   N/A
MICHIGAN CITY     56      20/  9/ 11   N/A
BURNS HARBOR              50/  8/ 11 1019.6S
SAINT JOSEPH      58      20/  4/  9 1020.3R
SOUTH LAKE BUOY   44 38  360/  6/  6 1020.0F
4 MI NW BRIDGMAN  55 55   60/ 10/ 12   N/A           1/ 2
MICHIGAN CITY     55 56   70/  8/ 10   N/A           1/ 2

$$
&&



USA.gov is the U.S. government's official web portal to all federal, state and local government web resources and services.